When you browse on this site, cookies collect data to enhance your experience and personalize the content and advertising you see.
Visit our Privacy Policy to learn more. By continuing to use the site, you agree to this use of cookies and data.
  • In Hungary
  • List of Countries
  • For 7 days
  • Water Temperature
  • Weather Map
  • News
  • Weather Widgets
  • user-avatar
    Login

    Hourly Weather San-Tome

    Today, 17 November, Sunday

    Time Temperature Precipitation Wind Pressure Humidity
    00:00 +27°C° 0 mm 1 mps 729 mmHg 81%
    01:00 +27°C° 0 mm 1 mps 728 mmHg 81%
    02:00 +27°C° 0 mm 1 mps 728 mmHg 81%
    03:00 +27°C° 0 mm 2 mps 727 mmHg 81%
    04:00 +27°C° 0 mm 2 mps 728 mmHg 82%
    05:00 +27°C° 0 mm 2 mps 728 mmHg 83%
    06:00 +27°C° 0 mm 3 mps 729 mmHg 84%
    07:00 +27°C° 0.3 mm 3 mps 729 mmHg 83%
    08:00 +27°C° 0.3 mm 3 mps 729 mmHg 82%
    09:00 +27°C° 0.3 mm 3 mps 730 mmHg 82%
    10:00 +27°C° 0.1 mm 3 mps 729 mmHg 80%
    11:00 +28°C° 0.1 mm 3 mps 729 mmHg 77%
    12:00 +28°C° 0 mm 3 mps 728 mmHg 75%
    13:00 +28°C° 0.1 mm 3 mps 728 mmHg 76%
    14:00 +28°C° 0.1 mm 3 mps 727 mmHg 77%
    15:00 +27°C° 0.1 mm 3 mps 727 mmHg 78%
    16:00 +27°C° 0.1 mm 3 mps 727 mmHg 80%
    17:00 +27°C° 0.1 mm 3 mps 728 mmHg 81%
    18:00 +27°C° 0.1 mm 3 mps 728 mmHg 83%
    19:00 +27°C° 0 mm 3 mps 729 mmHg 84%
    20:00 +27°C° 0 mm 3 mps 729 mmHg 85%
    21:00 +27°C° 0 mm 2 mps 729 mmHg 86%
    22:00 +27°C° 0 mm 2 mps 729 mmHg 85%
    23:00 +26°C° 0 mm 2 mps 729 mmHg 85%

    Tomorrow, 18 November, Monday

    Time Temperature Precipitation Wind Pressure Humidity
    00:00 +26°C° 0 mm 2 mps 729 mmHg 85%
    01:00 +26°C° 0 mm 2 mps 728 mmHg 84%
    02:00 +26°C° 0 mm 2 mps 728 mmHg 84%
    03:00 +26°C° 0 mm 2 mps 727 mmHg 84%
    04:00 +26°C° 0 mm 1 mps 728 mmHg 83%
    05:00 +26°C° 0 mm 1 mps 728 mmHg 82%
    06:00 +26°C° 0 mm 1 mps 729 mmHg 82%
    07:00 +27°C° 0 mm 2 mps 729 mmHg 80%
    08:00 +27°C° 0 mm 2 mps 729 mmHg 78%
    09:00 +27°C° 0 mm 2 mps 729 mmHg 77%
    10:00 +28°C° 0 mm 2 mps 729 mmHg 76%
    11:00 +28°C° 0 mm 2 mps 729 mmHg 75%
    12:00 +28°C° 0 mm 2 mps 729 mmHg 74%
    13:00 +28°C° 0.1 mm 2 mps 728 mmHg 74%
    14:00 +28°C° 0.1 mm 3 mps 728 mmHg 75%
    15:00 +28°C° 0.1 mm 3 mps 727 mmHg 76%
    16:00 +28°C° 0 mm 3 mps 728 mmHg 78%
    17:00 +27°C° 0 mm 3 mps 728 mmHg 80%
    18:00 +27°C° 0 mm 3 mps 728 mmHg 82%
    19:00 +27°C° 0 mm 3 mps 729 mmHg 83%
    20:00 +27°C° 0 mm 3 mps 729 mmHg 84%
    21:00 +27°C° 0 mm 3 mps 730 mmHg 85%
    22:00 +27°C° 0 mm 3 mps 730 mmHg 84%
    23:00 +27°C° 0 mm 3 mps 729 mmHg 84%

    Day after tomorrow, 19 November, Tuesday

    Time Temperature Precipitation Wind Pressure Humidity
    00:00 +26°C° 0 mm 2 mps 729 mmHg 84%
    01:00 +26°C° 0 mm 2 mps 729 mmHg 84%
    02:00 +26°C° 0 mm 2 mps 728 mmHg 84%
    03:00 +26°C° 0 mm 2 mps 728 mmHg 83%
    04:00 +26°C° 0.1 mm 2 mps 729 mmHg 83%
    05:00 +26°C° 0.1 mm 2 mps 729 mmHg 83%
    06:00 +26°C° 0.1 mm 2 mps 729 mmHg 83%
    07:00 +27°C° 0.4 mm 2 mps 730 mmHg 81%
    08:00 +27°C° 0.4 mm 1 mps 730 mmHg 78%
    09:00 +28°C° 0.4 mm 1 mps 730 mmHg 76%
    10:00 +28°C° 0.3 mm 2 mps 730 mmHg 76%
    11:00 +28°C° 0.3 mm 2 mps 729 mmHg 75%
    12:00 +28°C° 0.3 mm 3 mps 729 mmHg 75%
    13:00 +28°C° 0.3 mm 3 mps 729 mmHg 76%
    14:00 +28°C° 0.3 mm 3 mps 728 mmHg 77%
    15:00 +28°C° 0.3 mm 3 mps 728 mmHg 78%
    16:00 +27°C° 0.1 mm 3 mps 728 mmHg 79%
    17:00 +27°C° 0.1 mm 3 mps 728 mmHg 81%
    18:00 +27°C° 0.1 mm 3 mps 729 mmHg 82%
    19:00 +27°C° 0 mm 2 mps 729 mmHg 82%
    20:00 +27°C° 0 mm 2 mps 729 mmHg 83%
    21:00 +27°C° 0 mm 1 mps 730 mmHg 83%
    22:00 +27°C° 0 mm 1 mps 729 mmHg 82%
    23:00 +27°C° 0 mm 1 mps 729 mmHg 82%

    20 November, Wednesday

    Time Temperature Precipitation Wind Pressure Humidity
    00:00 +27°C° 0 mm 1 mps 729 mmHg 81%
    01:00 +27°C° 0.3 mm 2 mps 729 mmHg 81%
    02:00 +27°C° 0.3 mm 2 mps 728 mmHg 81%
    03:00 +26°C° 0.3 mm 2 mps 728 mmHg 82%
    04:00 +26°C° 0.2 mm 2 mps 729 mmHg 82%
    05:00 +27°C° 0.2 mm 2 mps 729 mmHg 82%
    06:00 +27°C° 0.2 mm 2 mps 729 mmHg 82%
    07:00 +27°C° 0.1 mm 2 mps 730 mmHg 80%
    08:00 +27°C° 0.1 mm 2 mps 730 mmHg 79%
    09:00 +27°C° 0.1 mm 2 mps 730 mmHg 77%
    10:00 +27°C° 0.3 mm 2 mps 730 mmHg 77%
    11:00 +27°C° 0.3 mm 3 mps 729 mmHg 77%
    12:00 +27°C° 0.3 mm 3 mps 729 mmHg 77%
    13:00 +27°C° 0.3 mm 3 mps 728 mmHg 79%
    14:00 +27°C° 0.3 mm 4 mps 728 mmHg 80%
    15:00 +27°C° 0.3 mm 4 mps 727 mmHg 81%
    16:00 +27°C° 0.2 mm 4 mps 728 mmHg 82%
    17:00 +27°C° 0.2 mm 4 mps 728 mmHg 83%
    18:00 +27°C° 0.2 mm 3 mps 729 mmHg 83%
    19:00 +27°C° 0.1 mm 3 mps 729 mmHg 84%
    20:00 +26°C° 0.1 mm 4 mps 729 mmHg 85%
    21:00 +26°C° 0.1 mm 4 mps 730 mmHg 86%
    22:00 +26°C° 0.2 mm 4 mps 729 mmHg 86%
    23:00 +26°C° 0.2 mm 4 mps 729 mmHg 87%

    21 November, Thursday

    Time Temperature Precipitation Wind Pressure Humidity
    00:00 +26°C° 0.2 mm 5 mps 729 mmHg 87%
    01:00 +26°C° 0.4 mm 5 mps 729 mmHg 87%
    02:00 +26°C° 0.4 mm 5 mps 728 mmHg 87%
    03:00 +26°C° 0.4 mm 5 mps 728 mmHg 87%
    04:00 +26°C° 2.3 mm 4 mps 728 mmHg 87%
    05:00 +26°C° 2.3 mm 4 mps 729 mmHg 87%
    06:00 +26°C° 2.3 mm 3 mps 729 mmHg 87%
    07:00 +25°C° 5.3 mm 3 mps 729 mmHg 88%
    08:00 +25°C° 5.3 mm 3 mps 730 mmHg 89%
    09:00 +25°C° 5.3 mm 3 mps 730 mmHg 90%
    10:00 +25°C° 0.8 mm 4 mps 729 mmHg 89%
    11:00 +25°C° 0.8 mm 4 mps 729 mmHg 88%
    12:00 +25°C° 0.8 mm 5 mps 729 mmHg 88%
    13:00 +25°C° 0.1 mm 5 mps 728 mmHg 87%
    14:00 +25°C° 0.1 mm 5 mps 728 mmHg 87%
    15:00 +26°C° 0.1 mm 5 mps 728 mmHg 86%
    16:00 +26°C° 0 mm 5 mps 728 mmHg 86%
    17:00 +26°C° 0 mm 5 mps 728 mmHg 87%
    18:00 +25°C° 0 mm 4 mps 728 mmHg 87%
    19:00 +26°C° 0 mm 5 mps 729 mmHg 87%
    20:00 +26°C° 0 mm 5 mps 729 mmHg 86%
    21:00 +26°C° 0 mm 5 mps 730 mmHg 85%
    22:00 +26°C° 0 mm 5 mps 730 mmHg 85%
    23:00 +26°C° 0 mm 5 mps 729 mmHg 85%

    22 November, Friday

    Time Temperature Precipitation Wind Pressure Humidity
    00:00 +26°C° 0 mm 5 mps 729 mmHg 85%
    01:00 +26°C° 0.4 mm 5 mps 729 mmHg 85%
    02:00 +26°C° 0.4 mm 4 mps 729 mmHg 85%
    03:00 +26°C° 0.4 mm 4 mps 728 mmHg 85%
    04:00 +26°C° 1.7 mm 5 mps 729 mmHg 86%
    05:00 +26°C° 1.7 mm 5 mps 729 mmHg 86%
    06:00 +25°C° 1.7 mm 5 mps 729 mmHg 87%
    07:00 +25°C° 1.8 mm 5 mps 730 mmHg 88%
    08:00 +25°C° 1.8 mm 5 mps 730 mmHg 89%
    09:00 +24°C° 1.8 mm 6 mps 731 mmHg 90%
    10:00 +24°C° 0.5 mm 6 mps 730 mmHg 90%
    11:00 +23°C° 0.5 mm 5 mps 730 mmHg 89%
    12:00 +23°C° 0.5 mm 5 mps 729 mmHg 89%
    13:00 +23°C° 0.2 mm 5 mps 729 mmHg 88%
    14:00 +23°C° 0.2 mm 5 mps 729 mmHg 87%
    15:00 +23°C° 0.2 mm 5 mps 728 mmHg 85%
    16:00 +25°C° 0.1 mm 5 mps 728 mmHg 84%
    17:00 +25°C° 0.1 mm 5 mps 728 mmHg 83%
    18:00 +25°C° 0.1 mm 4 mps 728 mmHg 82%
    19:00 +25°C° 0 mm 4 mps 729 mmHg 82%
    20:00 +25°C° 0 mm 3 mps 729 mmHg 82%
    21:00 +25°C° 0 mm 3 mps 730 mmHg 82%
    22:00 +26°C° 0 mm 3 mps 730 mmHg 81%
    23:00 +26°C° 0 mm 2 mps 730 mmHg 81%
    Show more